GFSSE_925_thetae_333.txt.gz
Theta_e
346 345 347 346 346 344 341 337 328 327 324 320 323 322 324 328 331 333 335 335 336 339 339 330 330 333 338 333 342 345 343 340 337 340 343 344 344 343 344 346 345 344 345
344 345 343 342 344 344 338 326 325 323 319 319 319 322 323 328 333 337 338 340 342 342 340 337 334 337 341 332 337 343 341 337 338 339 339 341 344 343 345 346 344 343 344
344 342 339 343 344 342 326 324 322 320 318 319 324 328 332 335 337 337 338 342 345 345 345 345 343 344 343 340 334 339 340 339 341 340 336 336 344 345 346 344 344 344 343
340 337 340 344 343 335 327 325 321 320 320 322 328 329 328 330 329 328 339 344 344 344 344 344 343 343 343 343 336 335 337 338 338 339 339 339 343 344 344 343 343 344 342
338 340 345 341 338 332 326 321 321 320 321 324 325 324 325 327 328 328 337 338 343 344 342 342 341 340 339 336 334 335 336 337 337 340 340 337 336 342 343 342 343 343 342
343 344 343 338 334 325 321 320 319 318 321 322 323 324 324 326 329 330 334 334 335 340 341 339 330 326 324 327 327 329 334 337 336 336 338 339 340 342 342 343 342 342 342
342 343 338 335 329 322 323 321 320 318 321 323 323 323 324 326 329 330 330 330 331 334 336 330 323 322 329 327 329 329 335 337 338 335 334 335 338 340 341 340 340 341 342
337 337 336 335 330 325 323 322 320 319 323 324 324 325 325 325 325 325 327 329 329 329 328 326 325 334 332 329 329 336 337 338 336 333 333 334 337 337 336 337 340 341 341
342 338 337 335 330 321 322 321 320 319 323 324 328 329 328 327 325 325 324 327 328 327 327 328 328 335 337 338 339 339 339 336 333 333 334 336 337 336 335 336 336 337 338
344 336 336 334 327 321 322 322 320 320 323 325 332 332 331 329 328 327 324 324 325 324 328 329 329 331 335 336 337 336 335 334 334 335 335 339 338 338 339 339 337 337 338
342 338 336 332 326 320 321 323 322 321 323 326 332 334 334 333 331 328 328 326 323 324 329 329 328 329 332 333 334 335 333 334 334 334 334 334 336 337 337 335 335 335 335
342 340 336 332 326 320 320 323 323 323 323 326 331 334 335 334 333 331 329 330 329 328 331 330 326 327 328 332 334 333 332 331 331 331 333 334 334 333 332 333 333 334 335
339 340 336 333 328 321 319 322 324 323 327 332 336 337 337 336 335 334 333 332 332 331 331 330 325 328 329 333 334 331 332 331 329 328 330 333 331 330 330 330 330 330 332
342 338 333 330 329 324 320 321 324 325 328 332 336 338 340 339 337 336 336 334 334 334 332 330 329 328 331 334 332 330 329 326 324 325 329 330 328 328 326 327 326 327 327
343 342 338 332 330 331 323 321 324 328 336 338 338 339 340 340 340 338 337 335 335 336 333 329 330 328 330 333 332 331 329 324 320 320 324 327 326 326 325 325 326 325 325
341 343 342 337 337 337 334 327 331 333 337 338 340 340 339 341 340 339 338 336 334 335 332 329 326 328 328 333 332 331 329 323 319 319 320 324 325 325 325 324 324 324 324
338 341 342 339 339 338 336 333 331 334 335 337 339 340 340 341 340 339 338 337 335 333 330 328 328 328 327 331 331 331 329 323 320 320 318 322 324 325 324 324 323 323 323
336 340 342 340 339 339 337 334 333 335 335 336 339 340 340 340 341 339 338 338 334 331 330 329 329 328 327 325 328 330 329 324 321 320 319 319 319 323 324 323 323 322 322
335 337 341 339 339 340 337 338 337 337 337 337 339 339 340 341 342 339 338 337 335 332 332 331 331 330 327 327 327 327 327 324 322 321 320 319 317 318 322 324 323 323 323
335 338 338 339 340 340 340 339 340 341 342 341 340 341 341 342 341 341 339 337 335 334 334 333 332 330 329 328 328 329 326 324 323 322 321 320 318 317 318 322 323 323 323
337 338 337 340 342 341 345 344 343 343 342 342 342 342 342 342 342 340 340 339 337 335 334 333 332 331 329 329 328 327 326 324 322 322 322 320 320 319 318 320 321 320 323
336 337 337 338 338 340 341 343 344 343 343 342 343 343 342 342 342 341 341 339 338 336 333 332 333 333 329 329 329 325 321 324 323 323 323 322 321 320 319 318 320 320 320
336 336 336 337 339 339 341 341 345 345 345 345 345 344 342 342 342 341 341 339 337 336 334 333 334 333 331 329 329 328 321 321 321 325 324 323 322 322 321 320 318 319 318
337 337 337 338 340 340 341 341 343 346 346 345 344 345 344 342 342 341 340 338 337 335 334 334 334 333 331 331 330 329 329 326 322 321 324 324 323 323 322 322 321 320 319
341 339 339 340 341 342 343 343 341 345 345 345 344 344 344 342 341 340 340 338 336 333 334 335 335 334 334 333 331 329 329 329 326 321 322 321 324 325 325 323 323 322 321
344 344 342 343 343 344 345 345 343 343 346 344 344 343 343 342 342 341 339 338 339 336 334 335 334 334 333 333 333 333 332 329 323 322 318 319 320 324 325 324 323 323 323

GFSSE_925_thetae_336.txt.gz
Theta_e
345 346 346 346 346 343 334 323 323 323 323 325 332 332 335 337 337 337 338 339 341 340 333 333 336 331 334 344 344 339 337 336 339 344 346 343 341 342 345 345 345 345 344
343 344 346 346 344 341 332 325 325 323 322 330 332 333 337 339 338 336 337 341 342 339 334 334 338 334 333 340 344 340 338 339 338 340 345 345 344 345 345 345 343 344 344
343 343 343 344 344 337 329 326 323 321 324 330 334 338 337 338 338 339 344 346 346 346 345 345 344 343 343 334 338 339 337 339 340 336 337 339 341 344 344 344 344 343 343
342 338 343 345 340 329 323 321 320 320 323 324 324 326 328 330 337 343 344 341 344 344 344 344 343 343 343 335 335 336 338 338 340 338 338 337 342 344 342 344 344 343 343
337 336 345 343 332 322 322 322 322 323 324 324 325 326 329 329 333 341 342 342 342 341 341 340 338 337 338 331 333 337 336 336 338 339 337 336 339 341 341 342 343 342 341
335 342 343 338 330 322 323 320 319 322 324 324 325 326 328 329 332 335 341 341 341 340 332 327 324 325 327 332 334 335 336 337 334 336 337 338 341 341 341 340 342 342 342
338 342 342 337 324 321 321 320 320 323 323 325 325 325 327 328 329 331 335 339 337 330 326 322 323 329 327 329 329 333 337 338 335 334 335 337 339 340 339 339 338 341 342
340 341 340 334 324 321 321 320 319 322 324 324 325 325 325 325 324 326 330 331 328 327 325 332 333 331 328 328 328 333 337 337 334 333 333 334 335 336 336 336 336 338 341
340 339 338 332 323 321 322 320 320 323 324 327 329 329 327 326 325 325 327 329 327 328 328 330 334 334 336 337 337 338 337 334 333 332 333 335 335 334 335 335 336 336 338
346 339 337 331 324 324 323 321 319 322 326 331 331 330 330 329 328 326 325 325 325 328 329 329 330 332 332 335 334 334 334 333 334 334 336 336 338 338 336 335 334 334 336
344 339 337 331 325 324 323 321 320 323 326 333 333 334 333 332 330 330 329 326 324 328 329 328 327 328 331 331 334 333 332 332 333 334 336 336 337 338 336 335 335 335 335
344 341 337 332 324 321 322 323 322 323 325 331 333 334 334 334 333 332 332 331 328 329 331 328 326 327 331 331 333 331 330 329 329 329 330 331 333 334 335 335 335 334 335
340 340 337 334 326 321 321 324 323 323 325 329 332 334 335 336 335 334 332 332 333 331 331 327 327 328 330 332 332 330 328 328 327 329 332 332 332 332 331 332 332 333 335
337 336 333 332 328 322 320 323 324 324 328 332 336 337 338 338 337 336 335 333 334 334 332 331 328 327 330 333 332 330 329 326 325 326 330 331 330 329 328 329 328 329 330
336 336 332 329 328 324 320 321 324 325 327 331 335 338 339 339 340 339 336 335 334 335 335 331 329 327 330 333 331 330 329 326 324 322 324 329 327 326 326 326 325 326 327
339 336 334 330 328 327 322 321 324 328 335 335 338 338 338 339 340 339 338 336 335 334 335 331 327 328 328 330 331 330 329 326 322 320 321 324 326 325 325 325 325 325 325
338 340 338 333 330 332 330 326 327 331 335 337 337 339 339 339 340 339 338 338 336 331 331 331 327 328 329 330 331 329 329 327 322 321 319 320 324 325 325 324 324 324 324
337 340 341 339 336 335 336 333 330 331 334 336 337 337 338 339 340 340 338 337 336 331 331 330 329 327 327 329 329 328 329 328 323 321 320 319 321 323 325 324 324 323 323
336 337 340 341 339 338 338 336 334 332 333 334 335 338 339 340 340 341 339 337 336 333 331 330 330 328 327 326 327 328 328 328 325 321 321 320 318 320 321 324 324 323 323
335 336 337 340 340 339 339 338 335 334 336 336 336 338 339 340 340 341 340 338 335 334 333 332 331 330 328 327 327 327 327 327 326 322 321 320 320 318 318 321 324 323 324
333 334 336 339 341 339 339 338 337 337 338 338 340 340 340 341 341 341 341 339 336 335 334 334 332 331 330 328 327 327 328 327 325 324 322 322 321 320 318 318 322 323 323
333 334 335 338 338 338 339 338 339 341 342 342 342 342 342 342 342 341 341 340 337 336 335 333 332 332 331 329 328 324 326 325 325 325 323 322 322 321 320 318 319 321 320
334 335 335 338 338 339 339 342 343 343 343 342 342 343 342 341 341 342 341 340 338 337 335 334 333 333 332 331 328 327 326 326 320 324 324 323 322 322 321 320 319 319 320
333 335 336 337 338 340 341 343 344 344 343 342 343 344 343 344 342 341 340 340 339 337 335 334 333 334 332 330 329 329 328 326 328 328 324 324 324 323 323 322 321 320 319
333 334 335 337 337 337 338 340 341 343 343 343 344 343 344 343 342 341 340 340 339 337 335 333 333 334 334 333 332 331 329 328 326 325 329 324 323 324 325 324 323 323 322
336 335 336 336 336 338 339 340 341 341 342 344 343 343 342 342 340 340 340 340 338 337 336 335 333 334 333 332 332 332 330 328 326 322 323 322 323 324 325 325 324 323 322

GFSSE_925_thetae_339.txt.gz
Theta_e
346 345 344 345 344 343 341 342 340 339 339 338 338 336 338 338 339 339 338 340 342 335 335 334 337 338 343 344 337 336 337 342 345 346 346 344 342 343 345 345 345 346 344
346 344 344 344 343 342 342 338 336 336 336 339 340 341 340 340 338 344 345 341 337 337 337 335 337 336 340 345 343 338 336 336 337 342 342 342 341 343 344 344 345 346 342
345 344 344 344 343 342 336 332 333 333 336 341 341 340 340 340 344 345 343 346 345 345 346 345 345 342 336 341 340 336 338 339 336 336 339 343 343 344 344 344 343 343 342
345 344 343 344 342 339 329 323 321 323 329 330 328 327 330 340 343 338 340 341 344 344 343 343 343 343 339 335 336 337 337 338 338 338 341 343 343 341 342 344 343 341 341
344 343 343 344 341 333 322 320 321 325 325 325 327 331 334 340 338 340 341 340 342 340 338 334 332 332 332 332 335 337 336 337 338 341 340 342 343 342 342 342 343 342 341
341 343 344 343 338 326 323 320 322 323 324 325 328 331 336 341 339 338 339 338 338 332 326 324 326 328 331 334 336 336 336 335 340 341 342 341 343 341 341 340 341 342 341
341 343 342 341 336 331 322 320 322 323 324 324 326 329 331 332 335 336 335 331 330 326 326 330 329 327 329 330 332 332 336 336 339 340 340 342 342 339 339 338 338 340 342
341 342 342 341 336 327 321 320 322 324 324 325 326 327 327 328 330 331 330 327 327 328 333 333 331 329 328 328 330 335 336 337 338 336 339 339 337 336 337 336 337 338 340
341 341 342 340 337 323 320 320 323 324 327 329 328 327 327 326 327 328 328 327 328 329 329 331 332 333 335 335 337 336 336 333 337 338 339 340 335 334 335 336 336 336 337
341 341 341 339 336 336 332 320 322 326 328 330 330 330 329 329 328 327 327 325 329 329 328 328 329 330 333 331 331 333 332 333 336 337 338 337 337 337 335 334 334 335 336
341 341 340 338 336 334 333 326 323 326 331 332 332 332 332 332 332 333 329 324 328 330 329 326 327 330 331 333 331 331 332 333 332 333 335 334 336 338 338 335 335 335 335
339 340 339 339 334 333 332 333 331 331 334 335 335 334 334 333 333 333 333 330 328 330 330 325 327 327 332 336 335 331 333 331 330 331 333 332 333 335 337 336 335 334 335
339 339 339 338 333 333 332 333 331 329 330 331 334 334 335 335 335 335 334 335 335 331 334 329 329 330 336 335 335 334 332 331 330 330 331 332 332 332 333 335 333 334 336
339 338 339 338 334 327 332 331 331 328 326 330 333 334 336 337 337 337 335 334 336 334 334 330 330 327 335 336 335 333 332 331 329 328 329 327 329 329 328 330 332 331 333
338 338 339 337 330 324 322 331 327 326 328 332 335 336 338 338 339 339 336 336 334 334 335 331 328 331 333 335 334 333 332 331 329 327 327 327 324 327 326 327 327 327 328
336 339 338 339 336 328 322 322 325 324 327 331 333 336 338 338 339 339 339 337 335 333 334 331 328 327 334 334 334 333 333 331 328 327 325 326 321 324 325 325 326 326 326
337 339 340 338 337 328 322 321 323 326 329 332 336 338 338 339 339 339 339 339 337 333 331 332 328 328 332 332 333 333 331 331 328 326 325 325 325 323 325 325 325 326 326
339 341 341 339 336 330 327 324 323 326 329 333 336 337 338 338 339 340 340 340 338 336 334 333 329 329 331 332 332 332 331 330 329 326 325 325 325 324 325 325 324 324 324
340 342 343 340 339 330 332 332 329 326 329 332 334 336 337 338 338 340 340 339 337 335 335 333 330 330 331 330 330 331 330 330 330 327 325 325 325 324 324 323 325 324 324
339 339 341 342 343 336 335 336 336 333 331 331 333 334 336 339 339 339 341 339 337 335 334 333 333 331 331 330 329 328 330 330 329 328 327 326 325 325 324 324 325 324 324
337 339 338 339 340 340 339 339 338 338 338 335 335 336 337 339 340 340 341 340 337 335 335 334 334 334 333 331 331 331 330 330 329 328 327 326 325 325 324 324 324 325 324
336 336 338 336 339 340 341 340 341 341 341 341 339 338 339 340 341 341 341 341 339 337 335 334 334 334 333 332 332 331 333 332 329 328 327 327 326 325 325 324 323 324 325
336 336 337 335 338 338 340 341 342 341 341 343 344 342 341 341 342 341 341 341 340 338 337 335 336 334 335 333 331 332 334 334 330 329 328 327 326 326 325 325 324 323 324
336 337 336 334 337 337 340 342 343 344 345 345 344 344 343 342 341 341 340 340 339 338 336 334 333 334 333 335 332 330 330 331 334 334 330 329 328 327 327 326 326 325 324
337 337 336 336 339 338 339 342 344 346 347 346 342 341 343 343 343 342 340 339 339 339 337 335 333 333 333 333 333 334 333 332 331 332 334 332 329 327 327 327 327 326 326
338 337 338 337 338 338 340 340 344 346 346 346 346 346 343 343 343 341 340 340 339 338 337 336 334 333 333 332 333 334 333 334 333 332 333 331 331 330 328 328 327 327 326

GFSSE_925_thetae_342.txt.gz
Theta_e
341 345 345 344 345 344 344 342 336 336 335 336 329 324 320 322 332 335 337 341 335 329 335 338 334 342 345 343 342 340 341 345 347 345 341 339 342 345 344 344 346 347 346
342 342 344 344 344 343 343 342 342 339 339 341 338 332 333 343 346 345 344 340 336 333 338 339 336 338 345 346 343 339 338 338 341 341 344 341 338 344 343 342 347 345 342
342 342 343 343 344 343 342 341 341 341 342 339 337 334 343 346 345 344 344 345 346 345 345 346 345 340 340 344 340 337 339 339 336 336 342 342 343 344 344 343 342 343 341
343 341 340 344 343 342 341 336 339 340 337 338 336 339 343 343 344 344 343 344 344 343 343 343 344 343 336 338 337 338 338 338 337 341 342 341 341 340 343 343 342 342 342
343 341 342 344 342 341 334 334 336 332 332 330 330 335 338 338 340 339 339 342 339 335 331 331 332 334 333 335 338 336 337 337 337 342 340 341 342 339 340 342 343 341 343
341 339 343 343 342 338 332 328 328 327 328 331 333 336 341 337 335 335 335 335 334 328 325 328 329 331 333 336 337 334 336 337 342 341 342 339 341 341 341 338 340 342 342
338 340 341 343 341 333 324 324 325 326 327 329 334 341 339 335 334 335 332 329 327 332 329 327 327 330 331 330 332 333 336 338 340 340 340 340 341 339 339 337 337 340 340
337 337 341 340 338 329 321 323 324 326 327 329 330 332 332 331 331 330 327 328 331 334 333 331 330 328 328 329 332 336 337 338 339 338 339 340 335 335 336 336 336 337 339
336 337 338 337 336 326 321 323 324 327 327 328 327 328 328 327 327 327 327 328 329 328 328 330 331 334 335 336 335 335 332 332 336 336 337 338 335 335 335 335 335 336 337
335 336 336 334 334 334 331 323 325 328 329 329 329 329 328 328 325 327 328 329 329 328 327 328 330 331 330 331 332 333 331 332 332 334 335 337 338 339 335 334 335 335 336
335 335 336 334 334 333 331 330 327 329 330 331 332 331 336 337 337 338 329 328 329 330 327 326 327 330 332 330 330 329 332 330 330 331 335 336 337 339 339 336 334 335 336
335 335 336 335 332 332 332 331 333 335 336 337 337 338 338 339 338 337 335 328 329 331 329 327 327 328 336 335 333 331 329 329 328 329 333 333 332 337 337 338 336 335 336
333 335 336 336 333 332 332 333 333 334 337 339 340 340 340 339 339 339 338 339 338 334 335 332 331 332 334 333 331 329 328 327 327 326 330 331 332 333 335 335 334 335 338
334 334 337 336 335 333 332 334 333 333 335 336 338 340 340 341 341 341 339 339 339 337 336 332 332 333 334 334 330 328 328 328 327 326 331 321 329 328 329 332 334 332 334
334 334 336 337 336 334 334 333 333 332 333 335 338 339 340 341 344 342 341 339 338 338 336 332 332 333 333 333 331 330 331 330 329 326 327 324 316 323 323 328 328 332 331
334 335 335 338 338 335 334 334 335 333 334 337 339 340 341 342 344 344 343 340 338 335 335 333 331 333 334 333 333 332 331 331 330 329 327 329 319 320 324 325 326 326 329
338 338 337 337 338 338 335 334 334 334 335 337 339 340 342 344 344 345 343 341 341 337 336 336 333 333 334 333 333 333 332 332 331 330 329 328 329 325 320 326 326 326 325
339 340 341 336 339 340 337 334 334 335 336 337 340 341 344 344 344 344 342 340 338 338 337 336 335 334 334 334 333 333 332 331 332 331 330 329 329 328 328 321 325 326 326
342 341 343 341 338 342 341 337 336 335 337 338 339 341 342 343 344 344 343 340 343 339 338 337 335 335 335 334 333 332 332 332 332 331 330 330 329 328 328 328 320 325 325
343 343 345 345 343 341 342 342 339 338 337 337 339 340 341 343 344 345 341 343 342 340 338 338 337 336 335 335 332 331 332 332 332 332 332 331 330 329 329 328 328 327 323
345 345 346 347 347 346 343 343 342 341 339 339 339 340 341 343 345 347 342 344 342 341 341 341 339 338 336 335 334 333 333 333 334 333 332 331 330 329 329 329 328 329 328
345 345 346 347 349 349 346 344 343 343 342 342 342 343 343 344 345 345 345 343 343 340 342 341 340 338 336 336 335 334 337 334 333 332 332 331 331 330 329 329 328 328 329
344 345 346 347 348 349 347 346 346 346 346 346 345 346 346 346 346 346 346 345 343 342 341 342 340 339 336 336 336 335 335 335 333 332 334 332 331 331 331 329 329 328 328
344 344 345 347 348 349 348 345 346 346 346 345 346 346 346 347 347 346 345 344 345 341 341 341 340 339 339 336 336 335 335 334 337 336 333 334 334 333 332 331 330 329 329
343 343 345 347 348 348 348 346 347 346 345 348 349 348 348 345 344 345 346 343 345 344 342 341 340 339 337 337 337 337 337 336 336 337 338 333 334 334 333 331 331 331 330
343 343 343 346 347 347 348 348 347 347 348 349 349 348 348 345 346 343 345 346 344 344 339 338 341 340 338 337 337 337 336 336 336 335 338 334 333 331 331 331 331 330 330